Theta_e
319 313 311 311 300 294 289 293 296 297 297 298 302 303 301 302 302 297 318 327 343 347 349 351 352 354 354 353 353 353 352 352 351 350 349 346 346 344 343 342 340 339 339 338 335 335 337 340 341
313 317 312 304 294 287 288 293 296 298 300 302 302 300 301 303 312 315 318 328 344 348 350 351 348 352 353 352 352 352 352 351 350 349 348 346 345 344 343 341 339 337 337 336 334 332 333 336 339
317 314 303 299 291 288 289 293 296 298 299 299 299 302 303 306 312 315 321 329 345 345 349 349 347 351 351 351 350 351 351 350 349 348 347 347 345 342 341 339 337 335 335 334 331 330 330 334 335
308 307 302 294 289 292 293 295 298 298 299 301 300 300 308 316 315 319 327 332 337 342 348 345 348 350 351 350 350 349 349 349 348 348 347 347 344 342 340 338 336 334 334 332 328 326 327 328 331
306 301 294 290 289 292 294 298 298 298 297 298 300 298 303 314 321 323 325 332 335 343 347 347 347 347 348 349 348 348 348 348 348 347 347 346 343 340 339 337 336 335 333 331 327 324 323 324 324
302 298 291 288 288 293 295 296 297 296 296 298 300 299 300 310 318 319 327 327 335 341 345 346 339 342 345 346 347 347 347 347 347 346 345 345 343 341 338 337 337 335 334 332 328 322 320 319 319
298 293 289 291 291 293 296 298 294 296 296 297 300 297 299 303 312 318 316 315 316 321 331 340 343 339 337 341 342 343 344 345 345 345 345 343 342 340 340 338 336 335 333 332 329 322 317 315 315
299 294 290 291 291 292 297 298 299 298 296 301 300 296 294 299 308 312 313 311 309 310 313 315 330 341 342 340 335 337 339 340 341 340 338 335 335 335 335 333 336 335 333 331 328 322 318 315 315
299 290 287 290 291 294 297 296 298 299 299 299 300 298 300 303 307 309 307 306 306 308 308 309 311 325 336 341 337 336 335 335 335 334 331 328 332 332 332 330 334 336 334 331 328 325 320 314 314
295 290 291 293 294 294 298 297 298 296 296 296 297 300 302 303 304 302 301 300 301 302 306 309 309 310 322 334 340 341 338 338 336 335 332 333 332 330 330 326 328 330 330 330 328 326 322 314 306
296 291 294 296 299 299 298 297 298 296 293 295 297 298 300 299 300 300 299 300 301 303 307 310 311 311 310 330 334 338 337 336 333 333 334 333 330 328 327 326 325 323 321 322 321 319 315 310 307
292 297 297 301 300 299 297 299 296 296 296 299 298 299 298 298 298 299 299 300 301 304 307 309 311 313 310 314 333 331 330 329 329 330 332 332 331 329 327 326 326 321 320 318 316 315 316 312 310
295 297 299 301 300 298 300 297 296 295 296 298 299 299 297 297 297 298 300 301 303 305 306 308 311 313 314 313 330 328 326 325 326 326 329 330 330 329 328 326 324 321 320 319 316 312 312 313 313
297 298 298 299 300 299 297 296 297 295 296 297 298 296 295 296 296 296 298 299 303 304 304 308 315 315 319 324 323 320 320 320 321 322 324 323 324 322 320 319 317 317 316 315 312 309 311 310 310
298 293 296 297 298 297 297 294 294 296 296 296 295 294 295 295 296 295 297 301 302 302 304 311 311 315 315 316 316 316 316 316 315 315 316 318 318 316 315 313 312 312 313 311 310 311 310 309 309
293 292 289 296 297 296 296 290 296 295 295 294 294 292 294 295 295 296 298 300 300 302 305 309 310 308 310 311 311 311 311 312 312 311 312 312 313 313 311 309 307 308 307 307 305 306 304 301 300
291 286 289 293 297 295 293 290 293 295 294 293 292 292 293 293 293 295 298 298 299 301 305 305 306 305 305 305 306 306 305 304 305 305 304 306 307 307 305 304 303 302 300 300 302 300 298 296 295
287 287 290 290 294 293 291 291 293 294 293 293 292 292 292 292 292 295 297 298 299 301 304 305 304 304 304 303 301 300 298 298 298 297 297 299 300 300 300 297 296 296 294 294 296 296 295 293 293
291 289 288 291 294 292 291 291 293 294 292 291 291 292 292 292 292 295 297 297 298 300 303 304 303 303 303 301 298 296 293 293 292 292 292 293 294 294 293 292 291 290 289 288 290 294 290 289 290
292 290 289 292 294 292 291 291 293 293 294 294 294 293 292 290 291 294 295 296 298 299 303 304 305 304 304 301 297 294 291 290 289 290 290 290 290 291 290 289 289 288 288 287 286 287 287 286 287
291 290 289 290 291 290 288 288 290 294 295 294 295 295 293 291 290 292 294 295 297 300 303 304 305 300 297 295 293 291 290 288 287 287 287 288 289 289 289 288 287 287 287 285 285 285 285 283 285
289 293 293 292 288 283 288 283 288 291 292 292 294 293 291 290 291 293 294 294 297 299 300 300 299 296 295 295 292 290 288 285 284 285 286 287 287 287 287 287 286 286 286 284 284 285 283 283 281
290 292 291 290 286 284 284 282 286 292 292 291 293 290 290 290 291 292 293 295 296 296 296 296 297 296 295 294 290 288 286 286 286 285 285 285 285 285 285 285 284 284 284 283 283 282 282 282 281
294 292 290 287 286 280 285 285 286 289 293 294 294 290 289 290 291 291 291 290 293 292 292 292 292 289 289 289 288 287 286 285 285 284 283 283 283 283 283 283 283 283 283 282 282 281 281 281 281
293 289 282 279 278 280 285 284 290 292 292 294 293 291 289 290 290 289 288 288 289 289 287 287 288 287 288 288 288 287 287 286 285 284 283 282 282 281 281 282 281 281 282 282 282 281 280 280 279
289 288 281 275 277 279 283 280 287 292 291 292 293 292 290 289 289 288 287 287 287 287 286 285 286 286 286 287 287 287 287 286 285 284 283 282 282 281 281 281 281 281 281 281 281 280 280 279 278
287 286 292 286 274 275 283 286 291 289 289 289 290 290 288 288 287 286 286 286 286 285 285 286 285 285 286 286 287 286 286 285 284 283 282 282 281 282 281 280 280 280 280 280 279 279 278 278 277
290 292 284 283 273 274 280 282 286 286 289 288 287 288 288 288 287 286 285 286 285 285 284 285 286 285 286 286 286 285 284 283 283 282 281 280 281 281 280 279 279 279 279 279 278 277 277 276 276
287 286 287 288 283 277 275 284 289 292 292 289 288 290 289 288 286 286 286 285 285 284 284 284 284 284 284 285 284 284 283 283 282 281 280 280 280 279 279 279 279 278 277 277 276 276 276 276 276
289 289 288 285 281 281 281 286 289 289 291 291 290 290 290 289 287 286 286 285 284 284 284 283 284 284 284 284 284 283 283 282 281 280 279 279 279 279 278 278 278 277 277 276 276 275 275 275 275
Wind_Speed
8 8 1 5 6 6 2 2 4 4 4 2 5 14 10 4 4 5 5 6 13 12 11 10 11 12 11 11 10 9 10 13 13 13 15 16 16 16 17 17 16 16 16 15 15 15 15 15 15
5 5 5 2 6 4 4 4 8 4 4 8 9 6 10 6 5 5 3 2 15 13 11 9 11 13 12 12 10 9 9 11 13 13 14 15 15 16 16 16 15 15 15 15 15 16 15 14 15
3 1 5 5 4 4 4 4 8 4 3 2 5 6 5 3 2 3 3 5 13 12 11 10 11 12 13 12 10 9 10 11 12 13 13 15 15 15 16 15 15 16 16 16 16 15 15 15 14
3 6 5 6 4 8 6 6 9 6 3 6 6 8 5 5 2 4 4 8 10 8 12 13 12 11 13 13 12 11 12 11 12 12 12 14 15 15 15 15 16 16 16 15 15 15 15 14 14
4 3 4 4 3 5 3 4 7 5 4 4 5 3 5 4 6 5 8 7 8 7 10 10 10 9 10 10 10 9 11 12 11 11 13 15 15 15 15 15 16 16 16 15 15 15 15 14 14
5 4 5 2 2 4 4 2 2 4 4 6 7 6 3 2 7 6 9 8 7 7 8 8 10 9 8 9 9 9 10 14 12 12 13 14 14 14 15 15 16 16 15 14 14 14 14 14 14
4 4 3 2 3 3 5 3 3 5 4 4 8 6 3 3 3 7 8 9 11 11 9 6 6 8 7 5 5 7 10 12 13 12 13 13 12 13 14 14 15 15 14 13 13 13 13 13 14
5 5 3 2 5 2 5 4 5 6 1 3 3 6 5 4 3 8 8 8 8 7 7 7 5 5 5 4 3 6 7 8 10 11 11 12 12 11 11 11 12 16 14 13 13 12 11 12 13
3 5 2 4 3 5 3 4 2 2 6 6 4 4 5 5 6 8 6 5 6 6 7 6 6 4 4 3 4 6 7 8 9 9 13 11 6 8 7 7 9 7 14 14 12 11 8 8 9
5 4 1 0 2 3 4 4 5 4 4 5 5 4 5 5 6 8 6 5 4 4 5 6 6 5 4 1 2 2 5 4 4 6 7 4 5 5 5 6 8 8 12 12 10 9 9 7 4
2 3 1 3 3 4 2 3 2 4 2 3 7 9 5 7 8 8 5 4 4 4 4 6 5 3 2 3 1 1 3 4 4 5 7 5 5 5 4 3 3 3 5 4 5 5 4 5 4
2 2 3 1 3 3 1 1 2 3 5 6 9 8 6 8 7 6 6 5 4 6 5 6 6 4 3 1 2 4 6 4 5 5 7 6 5 5 4 3 4 3 1 5 4 3 3 4 4
3 2 2 4 3 0 1 2 2 5 7 8 8 8 9 8 7 6 6 5 5 6 4 5 6 5 3 1 6 6 7 6 7 6 7 6 5 5 4 4 3 3 4 5 4 4 4 4 5
1 2 4 5 5 3 4 3 4 4 8 9 9 8 7 8 7 5 5 4 5 4 2 4 6 3 4 7 9 6 6 7 6 6 6 8 5 6 6 5 5 6 5 4 4 4 4 4 4
2 3 5 7 6 4 4 5 10 7 9 10 9 8 8 7 7 6 5 5 5 2 1 4 5 5 9 8 9 7 6 7 7 6 9 9 8 9 8 5 5 5 4 6 4 4 5 5 4
1 1 2 4 9 3 6 9 4 11 12 10 10 8 8 7 8 7 6 6 5 4 4 5 5 7 8 9 8 7 7 7 8 6 7 9 8 8 7 7 7 5 4 4 5 4 5 4 4
3 4 6 6 6 5 5 7 1 6 8 9 9 9 9 8 6 6 6 7 6 6 6 7 7 8 9 9 9 9 10 8 7 7 6 7 9 9 8 6 6 5 5 5 4 5 4 4 4
6 5 5 5 6 4 6 10 5 10 9 11 10 10 9 9 8 8 8 7 6 6 7 8 7 9 10 8 8 8 8 8 7 7 7 9 8 10 9 8 8 6 6 6 5 6 5 3 3
3 3 4 5 4 5 10 10 11 12 8 10 10 11 11 10 8 7 7 7 7 6 8 10 11 9 8 8 7 6 6 7 8 7 10 10 9 9 9 7 7 7 8 5 5 3 7 9 6
8 8 11 6 5 6 7 13 9 8 14 15 19 16 13 9 9 8 8 7 7 8 8 10 10 11 6 6 6 5 6 6 7 7 9 8 9 8 9 8 7 6 7 9 7 6 3 5 8
7 8 6 9 1 4 4 9 9 9 12 9 13 11 11 18 14 10 9 8 7 8 10 9 8 9 9 12 11 10 9 6 6 6 7 7 9 9 9 8 7 7 7 7 6 5 6 4 5
10 7 6 5 1 7 4 11 7 7 10 10 16 15 15 14 10 12 11 9 9 8 6 9 10 11 11 14 12 12 8 10 2 4 5 7 8 9 9 9 8 7 6 7 6 6 5 4 4
7 2 3 3 3 2 2 6 6 9 11 12 16 11 14 15 17 16 13 10 9 8 7 8 9 9 12 12 9 10 11 9 7 6 10 9 8 8 8 7 7 8 6 6 7 7 7 5 4
8 6 7 5 3 6 10 10 7 10 18 10 9 9 14 15 15 13 10 9 9 5 7 7 9 6 8 11 11 13 16 13 10 8 8 7 6 5 6 7 8 7 6 6 5 6 8 6 5
5 7 2 4 1 10 5 10 20 7 7 11 14 16 16 17 17 16 16 13 12 11 8 7 9 7 9 12 12 13 13 13 13 11 9 10 6 4 6 6 6 5 6 6 6 6 6 5 5
9 10 8 9 6 5 2 11 9 9 4 8 9 18 18 18 17 17 17 14 13 12 11 9 9 9 10 13 13 10 11 8 8 8 8 7 7 6 6 6 6 7 6 6 5 4 5 6 5
6 9 5 2 2 2 7 9 8 4 8 4 8 14 18 19 18 19 15 14 13 12 11 12 11 10 11 12 11 11 9 10 9 9 7 7 7 6 7 7 7 6 6 6 7 5 5 5 4
7 6 3 1 3 7 6 9 13 6 13 8 8 14 14 14 15 15 15 13 10 10 8 9 10 12 11 12 11 10 9 9 9 9 9 8 7 8 8 7 7 6 6 6 6 4 4 5 3
6 5 4 5 6 6 4 12 6 10 13 12 13 16 17 17 17 15 14 13 13 10 11 11 10 11 12 11 9 11 10 10 8 8 7 8 8 8 8 7 7 6 6 5 5 5 5 4 2
2 8 7 7 8 5 3 23 5 3 4 10 12 14 15 18 17 15 15 14 15 15 13 13 12 13 12 12 12 11 11 10 9 8 7 7 9 7 7 7 6 6 5 5 6 5 3 2 1
Wind_Direction
317 306 112 39 55 65 82 6 108 76 48 356 42 89 107 59 76 151 238 90 123 136 137 133 131 126 118 112 106 108 114 112 107 105 103 96 91 85 76 72 65 59 59 54 53 52 51 48 47
321 324 40 81 80 70 284 110 88 101 154 121 105 96 61 67 41 92 49 350 148 136 139 139 142 139 134 128 125 120 116 117 116 113 110 103 97 87 81 74 69 64 60 56 54 53 50 49 47
283 160 78 92 93 140 147 144 135 132 152 172 109 65 68 339 12 93 199 138 147 140 143 146 152 156 148 137 125 113 107 113 118 119 117 114 102 94 87 78 71 66 62 57 55 53 53 53 46
25 9 25 78 124 352 116 165 131 132 14 76 117 69 59 315 93 141 52 121 129 148 148 154 159 165 153 143 143 143 133 126 125 125 120 120 112 105 95 88 79 72 66 60 57 56 55 54 50
41 63 47 110 101 127 79 126 135 148 155 66 105 108 85 12 57 56 64 112 117 116 131 145 153 159 146 140 146 148 146 132 126 123 124 125 119 110 102 94 86 77 68 62 57 56 55 54 52
23 86 51 3 117 114 89 91 78 101 142 118 74 98 108 334 51 32 54 50 74 99 116 120 103 108 131 149 157 162 162 137 131 139 134 130 125 117 109 102 97 86 77 67 60 58 55 52 48
99 77 198 97 152 132 155 126 58 157 104 91 148 86 158 48 15 78 79 60 54 48 55 61 135 136 137 140 152 163 167 145 141 143 142 132 122 120 116 114 108 102 93 80 72 68 62 56 49
97 91 330 308 182 144 183 107 125 89 153 91 80 146 179 221 115 92 71 68 60 54 59 44 44 118 110 157 147 154 138 145 147 144 129 125 124 119 123 130 132 123 109 91 78 79 71 62 53
61 60 356 315 51 162 184 103 26 141 91 57 25 103 162 194 131 102 86 59 40 36 38 45 35 24 72 84 146 159 136 158 156 143 138 136 136 139 143 143 138 128 111 102 85 75 80 67 43
81 93 273 9 4 165 144 109 157 107 120 76 65 59 86 63 102 104 99 85 75 61 35 30 24 22 342 192 135 105 143 148 142 133 145 136 139 122 106 94 80 84 94 92 82 71 62 65 55
18 152 312 4 66 36 107 92 148 120 107 216 176 158 131 92 82 100 97 93 86 86 52 29 11 344 332 264 164 120 92 92 85 115 153 133 116 111 101 99 83 87 75 70 66 68 64 66 61
67 204 100 281 37 54 73 87 67 91 157 136 132 148 125 120 112 108 100 86 74 62 37 6 355 344 273 241 173 87 88 77 67 57 84 122 112 115 112 104 106 91 126 102 84 63 59 64 73
134 283 70 124 110 219 68 172 186 155 155 131 127 114 129 132 130 110 116 94 88 73 25 346 334 314 289 219 91 85 86 79 74 60 63 94 115 113 107 78 71 68 47 56 53 46 41 37 32
190 349 283 200 188 210 183 251 161 172 154 143 142 142 139 136 142 118 109 114 99 95 49 316 16 37 90 83 93 92 87 86 78 64 63 63 73 81 77 72 59 58 55 64 63 50 30 32 16
98 316 300 235 198 215 146 285 229 164 160 159 164 159 149 157 132 151 148 125 137 126 137 75 73 55 79 90 89 88 89 85 80 71 66 70 78 85 87 84 74 63 53 61 52 53 49 37 15
308 106 300 281 156 196 116 267 272 166 154 180 178 179 169 176 159 154 134 133 126 133 115 84 86 80 86 92 94 96 92 89 85 81 78 73 79 88 91 85 72 65 64 69 66 57 47 27 23
328 241 220 303 169 130 168 260 98 183 173 190 194 190 182 175 158 154 134 139 147 152 129 109 101 99 98 93 93 87 84 78 78 77 71 71 77 75 80 74 64 52 50 45 56 48 56 22 2
213 228 255 231 232 158 189 253 216 204 192 206 202 194 189 182 183 163 139 142 150 147 127 119 120 119 113 104 97 87 79 71 69 65 61 63 65 63 73 68 55 47 54 44 46 62 35 27 351
208 226 250 260 230 152 224 242 224 211 218 216 214 207 195 183 165 153 147 152 153 156 139 139 137 134 128 127 116 92 87 84 73 66 63 68 72 71 78 79 72 61 65 56 45 57 48 24 2
240 253 266 291 204 169 259 253 244 199 222 210 210 206 191 152 161 161 156 169 183 158 151 150 148 144 140 120 108 106 110 86 87 82 71 66 68 73 78 79 73 61 71 55 45 33 56 45 19
213 208 236 229 244 265 307 269 254 241 223 214 225 206 186 170 166 165 167 175 167 156 157 157 154 130 114 112 110 108 102 91 88 72 79 64 77 77 81 78 77 66 68 67 51 40 52 83 21
239 209 212 237 221 250 154 285 242 246 232 220 219 195 181 171 162 161 167 173 169 159 143 132 131 131 131 135 134 136 133 127 112 116 101 87 76 82 82 83 82 80 75 71 63 44 46 59 44
232 82 197 219 211 313 226 295 248 207 240 242 226 190 178 170 164 168 171 168 155 148 139 129 132 138 142 139 127 123 116 115 122 111 107 97 82 77 82 84 84 80 78 73 76 63 60 53 68
148 71 39 40 59 262 210 213 199 214 229 245 203 184 171 166 166 162 151 147 146 143 139 140 135 131 132 130 131 134 136 138 134 130 120 110 96 90 80 85 82 79 86 82 75 71 65 67 71
131 119 285 326 301 244 216 226 251 296 226 216 197 187 175 169 165 159 160 164 157 163 154 144 140 143 135 132 133 138 140 140 142 143 134 128 122 109 100 94 89 83 84 79 78 76 72 64 72
195 165 162 212 214 272 345 241 252 231 258 266 203 185 172 169 167 165 167 167 165 165 162 152 151 146 142 135 136 137 139 145 144 139 136 127 126 127 127 110 100 94 94 99 97 89 78 68 66
202 211 166 352 87 12 219 279 288 254 257 262 183 171 177 175 169 169 165 168 168 167 166 160 154 149 145 139 137 139 140 141 132 122 122 136 131 127 123 111 104 99 93 87 81 81 83 82 77
150 165 108 96 197 251 272 259 236 212 244 223 199 184 180 173 172 168 167 169 169 168 160 152 158 154 145 136 137 137 135 125 124 131 139 142 137 126 115 106 102 94 84 96 98 99 94 88 60
163 192 190 140 164 189 282 261 220 220 219 206 197 191 181 179 175 172 171 169 168 160 160 163 158 152 147 142 134 136 135 129 127 140 149 147 129 118 114 123 121 123 124 114 113 117 106 101 88
271 189 164 171 215 236 172 265 180 138 225 188 198 193 185 181 175 173 173 169 170 171 168 169 166 162 160 151 144 143 139 139 144 148 151 139 124 121 131 131 135 137 139 137 132 125 110 136 181